(°C)
10°
10°
10°
(°C)
სამხრ.
სამხრ.
სამხრ.
სსდ
სსდ
სდ
სდ
(კმ/სთ)
18-40
18-42
19-42
20-43
20-44
20-44
20-45
(მმ)
0
0
0
0
0
0
0
(%)
0
0
0
0
0
0
0

მზის სიმაღლე

/ 7.9°
sun-icon
UV 1
08:05
17:54
კლებადი მთვარე (244°)
20:29
14:19

METAR 55.27°ჩრ. 86.11°აღმ. (UNEE)-თვის

დრო პირობები ტემპერატურა/
ნამი
ქარი ხილვადობა ამინდი ღრუბლები წნევა ცვლილება დაუმუშავებელი
VFR 10°C / 1°C 140º 10kt >10km - Clouds and Visibility OK 1004 No Significant change UNEE 260930Z 14005MPS CAVOK 10/01 Q1004 R23/CLRD60 NOSIG RMK QFE730
VFR 10°C / 1°C 140º 10kt >10km - Clouds and Visibility OK 1005 No Significant change UNEE 260900Z 14005MPS CAVOK 10/01 Q1005 R23/CLRD60 NOSIG RMK QFE731
VFR 11°C / 1°C 140º 12kt >10km - Clouds and Visibility OK 1005 No Significant change UNEE 260830Z 14006MPS CAVOK 11/01 Q1005 R23/CLRD60 NOSIG RMK QFE731
VFR 10°C / 1°C 140º 10kt >10km - Clouds and Visibility OK 1006 No Significant change UNEE 260800Z 14005MPS CAVOK 10/01 Q1006 R23/CLRD60 NOSIG RMK QFE732
VFR 10°C / 1°C 140º 10kt >10km - Clouds and Visibility OK 1007 No Significant change UNEE 260730Z 14005MPS CAVOK 10/01 Q1007 R23/CLRD60 NOSIG RMK QFE733
VFR 10°C / 1°C 140º 10kt >10km - Clouds and Visibility OK 1008 No Significant change UNEE 260700Z 14005MPS CAVOK 10/01 Q1008 R23/CLRD60 NOSIG RMK QFE733
VFR 9°C / 0°C 140º 12kt >10km - Clouds and Visibility OK 1009 No Significant change UNEE 260630Z 14006MPS CAVOK 09/00 Q1009 R23/CLRD60 NOSIG RMK QFE734
VFR 9°C / 0°C 150º 12kt >10km - Clouds and Visibility OK 1010 No Significant change UNEE 260600Z 15006MPS CAVOK 09/00 Q1010 R23/CLRD60 NOSIG RMK QFE734
VFR 8°C / 1°C 140º 10kt >10km - Clouds and Visibility OK 1010 No Significant change UNEE 260530Z 14005MPS CAVOK 08/01 Q1010 R23/CLRD60 NOSIG RMK QFE735
VFR 8°C / 1°C 140º 10kt >10km - Clouds and Visibility OK 1011 No Significant change UNEE 260500Z 14005MPS CAVOK 08/01 Q1011 R23/CLRD60 NOSIG RMK QFE735
VFR 7°C / 0°C 150º 12kt >10km - Clouds and Visibility OK 1012 No Significant change UNEE 260430Z 15006MPS CAVOK 07/00 Q1012 R23/CLRD60 NOSIG RMK QFE736
VFR 7°C / 1°C 140º 10kt >10km - Clouds and Visibility OK 1012 No Significant change UNEE 260400Z 14005MPS CAVOK 07/01 Q1012 R23/CLRD60 NOSIG RMK QFE736
VFR 5°C / 1°C 140º 8kt >10km - Clouds and Visibility OK 1013 No Significant change UNEE 260330Z 14004MPS CAVOK 05/01 Q1013 R23/CLRD60 NOSIG RMK QFE737
VFR 4°C / 0°C 140º 8kt >10km - Scattered Clouds 4000ft 1013 No Significant change UNEE 260300Z 14004MPS 9999 SCT040 04/00 Q1013 R23/CLRD60 NOSIG RMK QFE737
VFR 3°C / 0°C 140º 8kt >10km - Scattered Clouds 4000ft 1014 No Significant change UNEE 260230Z 14004MPS 9999 SCT040 03/00 Q1014 R23/CLRD60 NOSIG RMK QFE737
VFR 3°C / 0°C 140º 8kt >10km - Scattered Clouds 4000ft 1014 No Significant change UNEE 260200Z 14004MPS 9999 SCT040 03/00 Q1014 R23/CLRD60 NOSIG RMK QFE737
VFR 3°C / 0°C 140º 6kt >10km - Scattered Clouds 4000ft 1014 No Significant change UNEE 260130Z 14003MPS 9999 SCT040 03/00 Q1014 R23/CLRD60 NOSIG RMK QFE738
VFR 4°C / 1°C 150º 4kt >10km - Scattered Clouds 4000ft 1015 No Significant change UNEE 260100Z 15002MPS 9999 SCT040 04/01 Q1015 R23/CLRD60 NOSIG RMK QFE738
VFR 4°C / 1°C 160º 4kt >10km - Scattered Clouds 4000ft 1015 No Significant change UNEE 260030Z 16002MPS 9999 SCT040 04/01 Q1015 R23/CLRD60 NOSIG RMK QFE738
VFR 4°C / 0°C 160º 4kt >10km - Clouds and Visibility OK 1015 No Significant change UNEE 260000Z 16002MPS CAVOK 04/00 Q1015 R23/CLRD60 NOSIG RMK QFE738
VFR 4°C / 0°C 150º 4kt >10km - Clouds and Visibility OK 1016 No Significant change UNEE 252330Z 15002MPS CAVOK 04/00 Q1016 R23/CLRD60 NOSIG RMK QFE739
VFR 5°C / 0°C 180º 4kt >10km - Clouds and Visibility OK 1016 No Significant change UNEE 252300Z 18002MPS CAVOK 05/00 Q1016 R23/CLRD60 NOSIG RMK QFE739
VFR 4°C / 0°C 220º 6kt >10km - Clouds and Visibility OK 1016 No Significant change UNEE 252230Z 22003MPS CAVOK 04/M00 Q1016 R23/CLRD60 NOSIG RMK QFE739
VFR 5°C / 0°C 210º 6kt >10km - Clouds and Visibility OK 1016 No Significant change UNEE 252200Z 21003MPS CAVOK 05/00 Q1016 R23/CLRD60 NOSIG RMK QFE739

VFR

10°C / 1°C

[მეტი]
ქარი 140º 10kt
ხილვადობა >10km
ამინდი -
ღრუბლები Clouds and Visibility OK
წნევა 1004
ცვლილება No Significant change
დაუმუშავებელი UNEE 260930Z 14005MPS CAVOK 10/01 Q1004 R23/CLRD60 NOSIG RMK QFE730

VFR

10°C / 1°C

[მეტი]
ქარი 140º 10kt
ხილვადობა >10km
ამინდი -
ღრუბლები Clouds and Visibility OK
წნევა 1005
ცვლილება No Significant change
დაუმუშავებელი UNEE 260900Z 14005MPS CAVOK 10/01 Q1005 R23/CLRD60 NOSIG RMK QFE731

VFR

11°C / 1°C

[მეტი]
ქარი 140º 12kt
ხილვადობა >10km
ამინდი -
ღრუბლები Clouds and Visibility OK
წნევა 1005
ცვლილება No Significant change
დაუმუშავებელი UNEE 260830Z 14006MPS CAVOK 11/01 Q1005 R23/CLRD60 NOSIG RMK QFE731

VFR

10°C / 1°C

[მეტი]
ქარი 140º 10kt
ხილვადობა >10km
ამინდი -
ღრუბლები Clouds and Visibility OK
წნევა 1006
ცვლილება No Significant change
დაუმუშავებელი UNEE 260800Z 14005MPS CAVOK 10/01 Q1006 R23/CLRD60 NOSIG RMK QFE732

VFR

10°C / 1°C

[მეტი]
ქარი 140º 10kt
ხილვადობა >10km
ამინდი -
ღრუბლები Clouds and Visibility OK
წნევა 1007
ცვლილება No Significant change
დაუმუშავებელი UNEE 260730Z 14005MPS CAVOK 10/01 Q1007 R23/CLRD60 NOSIG RMK QFE733

VFR

10°C / 1°C

[მეტი]
ქარი 140º 10kt
ხილვადობა >10km
ამინდი -
ღრუბლები Clouds and Visibility OK
წნევა 1008
ცვლილება No Significant change
დაუმუშავებელი UNEE 260700Z 14005MPS CAVOK 10/01 Q1008 R23/CLRD60 NOSIG RMK QFE733

VFR

9°C / 0°C

[მეტი]
ქარი 140º 12kt
ხილვადობა >10km
ამინდი -
ღრუბლები Clouds and Visibility OK
წნევა 1009
ცვლილება No Significant change
დაუმუშავებელი UNEE 260630Z 14006MPS CAVOK 09/00 Q1009 R23/CLRD60 NOSIG RMK QFE734

VFR

9°C / 0°C

[მეტი]
ქარი 150º 12kt
ხილვადობა >10km
ამინდი -
ღრუბლები Clouds and Visibility OK
წნევა 1010
ცვლილება No Significant change
დაუმუშავებელი UNEE 260600Z 15006MPS CAVOK 09/00 Q1010 R23/CLRD60 NOSIG RMK QFE734

VFR

8°C / 1°C

[მეტი]
ქარი 140º 10kt
ხილვადობა >10km
ამინდი -
ღრუბლები Clouds and Visibility OK
წნევა 1010
ცვლილება No Significant change
დაუმუშავებელი UNEE 260530Z 14005MPS CAVOK 08/01 Q1010 R23/CLRD60 NOSIG RMK QFE735

VFR

8°C / 1°C

[მეტი]
ქარი 140º 10kt
ხილვადობა >10km
ამინდი -
ღრუბლები Clouds and Visibility OK
წნევა 1011
ცვლილება No Significant change
დაუმუშავებელი UNEE 260500Z 14005MPS CAVOK 08/01 Q1011 R23/CLRD60 NOSIG RMK QFE735

VFR

7°C / 0°C

[მეტი]
ქარი 150º 12kt
ხილვადობა >10km
ამინდი -
ღრუბლები Clouds and Visibility OK
წნევა 1012
ცვლილება No Significant change
დაუმუშავებელი UNEE 260430Z 15006MPS CAVOK 07/00 Q1012 R23/CLRD60 NOSIG RMK QFE736

VFR

7°C / 1°C

[მეტი]
ქარი 140º 10kt
ხილვადობა >10km
ამინდი -
ღრუბლები Clouds and Visibility OK
წნევა 1012
ცვლილება No Significant change
დაუმუშავებელი UNEE 260400Z 14005MPS CAVOK 07/01 Q1012 R23/CLRD60 NOSIG RMK QFE736

VFR

5°C / 1°C

[მეტი]
ქარი 140º 8kt
ხილვადობა >10km
ამინდი -
ღრუბლები Clouds and Visibility OK
წნევა 1013
ცვლილება No Significant change
დაუმუშავებელი UNEE 260330Z 14004MPS CAVOK 05/01 Q1013 R23/CLRD60 NOSIG RMK QFE737

VFR

4°C / 0°C

[მეტი]
ქარი 140º 8kt
ხილვადობა >10km
ამინდი -
ღრუბლები Scattered Clouds 4000ft
წნევა 1013
ცვლილება No Significant change
დაუმუშავებელი UNEE 260300Z 14004MPS 9999 SCT040 04/00 Q1013 R23/CLRD60 NOSIG RMK QFE737

VFR

3°C / 0°C

[მეტი]
ქარი 140º 8kt
ხილვადობა >10km
ამინდი -
ღრუბლები Scattered Clouds 4000ft
წნევა 1014
ცვლილება No Significant change
დაუმუშავებელი UNEE 260230Z 14004MPS 9999 SCT040 03/00 Q1014 R23/CLRD60 NOSIG RMK QFE737

VFR

3°C / 0°C

[მეტი]
ქარი 140º 8kt
ხილვადობა >10km
ამინდი -
ღრუბლები Scattered Clouds 4000ft
წნევა 1014
ცვლილება No Significant change
დაუმუშავებელი UNEE 260200Z 14004MPS 9999 SCT040 03/00 Q1014 R23/CLRD60 NOSIG RMK QFE737

VFR

3°C / 0°C

[მეტი]
ქარი 140º 6kt
ხილვადობა >10km
ამინდი -
ღრუბლები Scattered Clouds 4000ft
წნევა 1014
ცვლილება No Significant change
დაუმუშავებელი UNEE 260130Z 14003MPS 9999 SCT040 03/00 Q1014 R23/CLRD60 NOSIG RMK QFE738

VFR

4°C / 1°C

[მეტი]
ქარი 150º 4kt
ხილვადობა >10km
ამინდი -
ღრუბლები Scattered Clouds 4000ft
წნევა 1015
ცვლილება No Significant change
დაუმუშავებელი UNEE 260100Z 15002MPS 9999 SCT040 04/01 Q1015 R23/CLRD60 NOSIG RMK QFE738

VFR

4°C / 1°C

[მეტი]
ქარი 160º 4kt
ხილვადობა >10km
ამინდი -
ღრუბლები Scattered Clouds 4000ft
წნევა 1015
ცვლილება No Significant change
დაუმუშავებელი UNEE 260030Z 16002MPS 9999 SCT040 04/01 Q1015 R23/CLRD60 NOSIG RMK QFE738

VFR

4°C / 0°C

[მეტი]
ქარი 160º 4kt
ხილვადობა >10km
ამინდი -
ღრუბლები Clouds and Visibility OK
წნევა 1015
ცვლილება No Significant change
დაუმუშავებელი UNEE 260000Z 16002MPS CAVOK 04/00 Q1015 R23/CLRD60 NOSIG RMK QFE738

VFR

4°C / 0°C

[მეტი]
ქარი 150º 4kt
ხილვადობა >10km
ამინდი -
ღრუბლები Clouds and Visibility OK
წნევა 1016
ცვლილება No Significant change
დაუმუშავებელი UNEE 252330Z 15002MPS CAVOK 04/00 Q1016 R23/CLRD60 NOSIG RMK QFE739

VFR

5°C / 0°C

[მეტი]
ქარი 180º 4kt
ხილვადობა >10km
ამინდი -
ღრუბლები Clouds and Visibility OK
წნევა 1016
ცვლილება No Significant change
დაუმუშავებელი UNEE 252300Z 18002MPS CAVOK 05/00 Q1016 R23/CLRD60 NOSIG RMK QFE739

VFR

4°C / 0°C

[მეტი]
ქარი 220º 6kt
ხილვადობა >10km
ამინდი -
ღრუბლები Clouds and Visibility OK
წნევა 1016
ცვლილება No Significant change
დაუმუშავებელი UNEE 252230Z 22003MPS CAVOK 04/M00 Q1016 R23/CLRD60 NOSIG RMK QFE739

VFR

5°C / 0°C

[მეტი]
ქარი 210º 6kt
ხილვადობა >10km
ამინდი -
ღრუბლები Clouds and Visibility OK
წნევა 1016
ცვლილება No Significant change
დაუმუშავებელი UNEE 252200Z 21003MPS CAVOK 05/00 Q1016 R23/CLRD60 NOSIG RMK QFE739

TAF 55.27°ჩრ. 86.11°აღმ. (UNEE)-თვის

From till


From till Wind 160º 16kt. Gust 33kt. Visibility 10km or more. Broken Clouds 4000ft.
Becoming from till Wind 210º 17kt. Gust 39kt. Visibility 10km or more. Broken Clouds 4000ft.
From till Wind 250º 16kt. Gust 33kt. Visibility 8000m. Light Showers Rain . Broken Clouds 1600ft.
Becoming from till Wind 250º 16kt. Gust 33kt. Visibility 8000m. Light Showers Rain . Broken Clouds 4000ft.

დაუმუშავებელი: TAF UNEE 260800Z 2609/2709 16008G17MPS 9999 BKN040CB BECMG 2611/2613 21009G20MPS FM261600 25008G17MPS 8000 -SHRA BKN016CB BECMG 2703/2706 BKN040CB

მიმდინარე სატელიტისა და წვიმის სურათები 55.27°ჩრ. 86.11°აღმ.-თვის

ლოკაციის მარკერი დაყენებყლია 55.27°ჩრ. 86.11°აღმ.ზე. [მეტი]

რეალურ დროში სატელიტური სურათი აერთიანებს ხილულ სინათლეს დღისით ღამის განმავლობაში ინფრაწითელ გამოსხივებასთან ერთად. ღამით, სურათი არ არის მუქი, რადგან ინფრაწითელ გამოსხივებას შეუძლია ტემპერატურის განსხვავებების დადგენა. სამწუხაროდ, დაბალი ღრუბლები და ნისლი ძნელია განასხვავონ მიწის ტემპერატურისგან და, შესაბამისად, ისინი შეიძლება თითქმის არ ჩანდეს ღამით. Meteosat სატელიტური გამოსახულება ევროპისთვის ახლდება რეალურ დროში ყოველ 5 წუთში. GOES-16/GOES-17 (ჩრდილოეთი და სამხრეთ ამერიკა) და ჰიმავარი (აზია) გამოსახულებები ახლდება ყოველ 10 წუთში.

საავტორო უფლებები 2021 EUMETSAT / meteoblue. / საავტორო უფლებები 2021 meteoblue

რადარის და ნალექების მაჩვენებელი 55.27°ჩრ. 86.11°აღმ. -თვის

გაწურეთ
Მსუბუქი
ზომიერი
Მძიმე
Ძალიან მძიმე
სეტყვა

მდებარეობის მარკერი მოთავსებულია 55.27°ჩრ. 86.11°აღმ. -ზე. ეს ანიმაცია აჩვენებს ნალექების სარადარო მონაცემებს როგორც ბოლო საათის განმავლობაში, ასევე 1h პროგნოზს. წვიმა ან თოვლის მსუბუქი ვარდნა შეიძლება უჩინარი იყოს რადარისთვის. ნალექების ინტენსივობა არის კოდირებული ფერით, დაწყებული ღია ლურჯიდან ნარინჯისფერამდე.